Regional Weather Roundup
Issued by NWS Portland, ME

Home | Current Version | Previous Version | Text Only | Print | Product List | Glossary On
Versions: 1 2 3 4 5 6 7 8 9 10 11 12 13 14 15 16 17 18 19 20 21 22 23 24 25 26 27 28 29 30 31 32 33 34 35 36 37 38 39 40 41 42 43 44 45 46 47 48 49 50
000
ASUS41 KGYX 260310
RWRGYX
WEATHER ROUNDUP FOR MAINE AND NEW HAMPSHIRE
NATIONAL WEATHER SERVICE GRAY ME
1100 PM EDT SAT APR 25 2015

MEZ002-005-006-010-012-015-018-020-021-024-026-027-029-260400-
MAINE

CITY           SKY/WX    TMP DP  RH WIND       PRES   REMARKS
PORTLAND       CLOUDY    43  30  60 W3        29.71F
SANFORD        CLOUDY    34  27  75 CALM      29.71F
BAR HARBOR     CLOUDY    36  34  93 CALM      29.66F
WISCASSET      CLOUDY    44  31  60 CALM      29.70F
ROCKLAND       CLOUDY    43  32  65 W5        29.67F
FRYEBURG       CLOUDY    38  30  73 CALM      29.71F
LEWISTONAUBURN CLOUDY    39  28  65 CALM      29.70S
AUGUSTA        CLOUDY    41  30  65 W6        29.69F
WATERVILLE     CLOUDY    41  28  60 CALM      29.66S
BANGOR         MOCLDY    41  32  70 NW6       29.67S
GREENVILLE       N/A     35  33  92 NW9       29.61F
MILLINOCKET    CLOUDY    41  33  73 W3        29.65S
HOULTON        CLOUDY    34  32  92 CALM      29.61F
PRESQUE ISLE   CLOUDY    37  30  75 CALM      29.63S
FRENCHVILLE    CLOUDY    35  31  85 NW7       29.61F
CARIBOU        CLOUDY    36  32  85 NW6       29.61F
$$

NHZ002-005-008-009-011-012-014-260400-
NEW HAMPSHIRE

CITY           SKY/WX    TMP DP  RH WIND       PRES   REMARKS
ROCHESTER      CLOUDY    41  28  60 NW5       29.71S
NASHUA         FAIR      44  29  56 CALM      29.74S
MANCHESTER     CLOUDY    43  28  55 NW3       29.72S
CONCORD        CLOUDY    40  30  67 W3        29.73S
LACONIA        CLOUDY    43  28  56 W3        29.71S
PLYMOUTH       CLOUDY    40  35  83 CALM      29.72F
BERLIN         CLOUDY    38  30  73 CALM      29.69F
WHITEFIELD     CLOUDY    37  31  78 CALM      29.71S
JAFFREY        CLOUDY    37  29  72 CALM      29.72F
KEENE          CLOUDY    37  28  70 CALM      29.74S
LEBANON        CLOUDY    38  31  76 CALM      29.73S
MT WASHINGTON  FOG       19  19 100 N37G44      N/A  VSB 0   WCI  -1
$$

VTZ005-007-008-260400-
VERMONT

CITY           SKY/WX    TMP DP  RH WIND       PRES   REMARKS
ST JOHNSBURY     N/A     39  33  79 MISG      29.70F
MONTPELIER     CLOUDY    36  30  79 CALM      29.75F
BURLINGTON     CLOUDY    44  30  57 CALM      29.73S
$$

MAZ007-012-024-CTZ003-RIZ002-NYZ038-NYZ072-260400-
SOUTHERN NEW ENGLAND AND NY

CITY           SKY/WX    TMP DP  RH WIND       PRES   REMARKS
BOSTON         PTCLDY    45  28  51 N12       29.73S
WORCESTER      CLOUDY    45  27  49 N5        29.71S
NANTUCKET      CLOUDY    43  35  73 NW5       29.71F
PROVIDENCE     MOCLDY    48  30  49 NE7       29.72S
HARTFORD       CLOUDY    49  28  44 N7        29.71S
ALBANY         MOCLDY    45  27  49 NW7       29.76R
NEW YORK CITY  MOCLDY    49  36  61 NE8       29.70S
$$

ANZ081-ANZ082-ANZ150-NHZ014-MEZ023>029-260400-
COASTAL MARINE OBSERVATIONS

STATION/POSITION TIME  TEMP    WIND        PRES    WAVE
                       AIR SEA DIR/SP/G            HT/PER
                 (UTC) (F)     (DEG/KT/KT) (MB)    (FT/S)
$$

.............KEY..............
   WCI - WIND CHILL
   TC  - TEMPERATURE IN CELSIUS
   VSB - VISIBILITY IN MILES
   HX  - HEAT INDEX
   FAIR- INDICATES FEW OR NO CLOUDS BELOW 12,000 FT, WITH NO
         SIGNIFICANT WEATHER AND/OR OBSTRUCTIONS TO VISIBILITY.





USA.gov is the U.S. government's official web portal to all federal, state and local government web resources and services.